| time (UTC) | temp F | wind direction | speed MPH | gust MPH | rain 1hr in | rain 24hr in | rain mn in | humidity % | barometer mb |
| 20260504181137 | 83 | 194 | 9.0 | 6.0 | 0.00 | 0.00 | 0.00 | 28 | 999.9 |
| 20260504180636 | 83 | 235 | 4.0 | 6.0 | 0.00 | 0.00 | 0.00 | 30 | 999.8 |
| 20260504180137 | 83 | 271 | 6.0 | 6.0 | 0.00 | 0.00 | 0.00 | 29 | 999.9 |
| 20260504175637 | 83 | 223 | 5.0 | 7.0 | 0.00 | 0.00 | 0.00 | 31 | 999.9 |
| 20260504175137 | 82 | 224 | 4.0 | 6.0 | 0.00 | 0.00 | 0.00 | 32 | 999.9 |
| 20260504174636 | 83 | 244 | 4.0 | 5.0 | 0.00 | 0.00 | 0.00 | 34 | 1000.0 |
| 20260504174137 | 82 | 233 | 4.0 | 5.0 | 0.00 | 0.00 | 0.00 | 34 | 1000.1 |
| 20260504173637 | 81 | 229 | 4.0 | 5.0 | 0.00 | 0.00 | 0.00 | 36 | 1000.0 |
| 20260504173137 | 81 | 184 | 4.0 | 7.0 | 0.00 | 0.00 | 0.00 | 36 | 1000.2 |
| 20260504172637 | 80 | 210 | 6.0 | 8.0 | 0.00 | 0.00 | 0.00 | 36 | 1000.2 |
| 20260504172138 | 80 | 203 | 12.0 | 7.0 | 0.00 | 0.00 | 0.00 | 35 | 1000.4 |
| 20260504171637 | 80 | 221 | 11.0 | 6.0 | 0.00 | 0.00 | 0.00 | 37 | 1000.4 |
| 20260504171137 | 80 | 206 | 4.0 | 7.0 | 0.00 | 0.00 | 0.00 | 37 | 1000.5 |
| 20260504170636 | 79 | 231 | 4.0 | 8.0 | 0.00 | 0.00 | 0.00 | 38 | 1000.5 |
| 20260504170137 | 79 | 214 | 8.0 | 8.0 | 0.00 | 0.00 | 0.00 | 37 | 1000.6 |
| 20260504160137 | 76 | 173 | 5.0 | 7.0 | 0.00 | 0.00 | 0.00 | 37 | 1001.5 |
| 20260504151137 | 72 | 210 | 5.0 | 6.0 | 0.00 | 0.00 | 0.00 | 41 | 1002.1 |
| 20260504150636 | 71 | 209 | 8.0 | 7.0 | 0.00 | 0.00 | 0.00 | 42 | 1002.2 |
| 20260504150137 | 71 | 172 | 6.0 | 6.0 | 0.00 | 0.00 | 0.00 | 41 | 1002.2 |
| 20260504141137 | 66 | 219 | 9.0 | 5.0 | 0.00 | 0.00 | 0.00 | 52 | 1002.8 |
| 20260504140637 | 65 | 234 | 8.0 | 5.0 | 0.00 | 0.00 | 0.00 | 53 | 1002.8 |
| 20260504140137 | 65 | 224 | 4.0 | 5.0 | 0.00 | 0.00 | 0.00 | 54 | 1002.9 |
| 20260504130636 | 58 | 238 | 4.0 | 4.0 | 0.00 | 0.00 | 0.00 | 69 | 1003.5 |
| 20260504130137 | 57 | 225 | 1.0 | 4.0 | 0.00 | 0.00 | 0.00 | 70 | 1003.6 |
| 20260504120136 | 53 | 209 | 3.0 | 3.0 | 0.00 | 0.00 | 0.00 | 78 | 1003.8 |
| 20260504110636 | 51 | 181 | 2.0 | 3.0 | 0.00 | 0.00 | 0.00 | 78 | 1003.8 |
| 20260504110136 | 51 | 210 | 4.0 | 4.0 | 0.00 | 0.00 | 0.00 | 78 | 1003.9 |
| 20260504100137 | 52 | 205 | 1.0 | 2.0 | 0.00 | 0.00 | 0.00 | 77 | 1003.9 |
| 20260504090137 | 53 | 0 | 0.0 | 1.0 | 0.00 | 0.00 | 0.00 | 74 | 1003.9 |
| 20260504081636 | 54 | 208 | 1.0 | 1.0 | 0.00 | 0.00 | 0.00 | 69 | 1003.7 |
| 20260504081137 | 54 | 182 | 1.0 | 0.0 | 0.00 | 0.00 | 0.00 | 69 | 1003.7 |
| 20260504080636 | 54 | 0 | 0.0 | 0.0 | 0.00 | 0.00 | 0.00 | 68 | 1003.7 |
| 20260504080136 | 55 | 0 | 0.0 | 1.0 | 0.00 | 0.00 | 0.00 | 69 | 1003.7 |
| 20260504070136 | 57 | 207 | 2.0 | 2.0 | 0.00 | 0.00 | 0.00 | 66 | 1004.5 |
| 20260504060136 | 59 | 224 | 5.0 | 3.0 | 0.00 | 0.00 | 0.00 | 64 | 1005.0 |
| 20260504050637 | 58 | 195 | 4.0 | 2.0 | 0.00 | 0.00 | 0.00 | 66 | 1005.3 |
| 20260504050138 | 58 | 214 | 2.0 | 3.0 | 0.00 | 0.00 | 0.00 | 66 | 1005.3 |
| 20260504045637 | 58 | 212 | 3.0 | 3.0 | 0.00 | 0.00 | 0.00 | 66 | 1005.2 |
| 20260504045138 | 58 | 218 | 4.0 | 3.0 | 0.00 | 0.00 | 0.00 | 65 | 1005.2 |
| 20260504044637 | 59 | 200 | 2.0 | 3.0 | 0.00 | 0.00 | 0.00 | 65 | 1005.3 |
| 20260504044137 | 59 | 195 | 2.0 | 3.0 | 0.00 | 0.00 | 0.00 | 65 | 1005.2 |
| 20260504043637 | 59 | 202 | 2.0 | 3.0 | 0.00 | 0.00 | 0.00 | 64 | 1005.2 |
| 20260504043137 | 59 | 212 | 2.0 | 3.0 | 0.00 | 0.00 | 0.00 | 64 | 1005.3 |
| 20260504042636 | 59 | 203 | 2.0 | 3.0 | 0.00 | 0.00 | 0.00 | 64 | 1005.3 |
| 20260504042137 | 59 | 191 | 4.0 | 3.0 | 0.00 | 0.00 | 0.00 | 63 | 1005.3 |
| 20260504041637 | 59 | 186 | 4.0 | 3.0 | 0.00 | 0.00 | 0.00 | 63 | 1005.2 |
| 20260504041137 | 60 | 210 | 3.0 | 3.0 | 0.00 | 0.00 | 0.00 | 63 | 1005.3 |
| 20260504040637 | 60 | 220 | 3.0 | 3.0 | 0.00 | 0.00 | 0.00 | 62 | 1005.4 |
| 20260504040137 | 60 | 203 | 1.0 | 3.0 | 0.00 | 0.00 | 0.00 | 62 | 1005.5 |
| 20260504035636 | 60 | 218 | 1.0 | 2.0 | 0.00 | 0.00 | 0.00 | 62 | 1005.6 |
| 20260504035137 | 60 | 186 | 1.0 | 3.0 | 0.00 | 0.00 | 0.00 | 61 | 1005.6 |
| 20260504034637 | 60 | 167 | 3.0 | 3.0 | 0.00 | 0.00 | 0.00 | 61 | 1005.7 |
| 20260504034137 | 60 | 217 | 3.0 | 3.0 | 0.00 | 0.00 | 0.00 | 61 | 1005.7 |
| 20260504033637 | 61 | 208 | 3.0 | 3.0 | 0.00 | 0.00 | 0.00 | 61 | 1005.8 |
| 20260504033137 | 61 | 216 | 3.0 | 3.0 | 0.00 | 0.00 | 0.00 | 60 | 1005.9 |
| 20260504032637 | 61 | 217 | 4.0 | 3.0 | 0.00 | 0.00 | 0.00 | 60 | 1006.0 |
| 20260504032137 | 61 | 195 | 4.0 | 3.0 | 0.00 | 0.00 | 0.00 | 60 | 1006.0 |
| 20260504031636 | 61 | 212 | 2.0 | 3.0 | 0.00 | 0.00 | 0.00 | 59 | 1006.1 |
| 20260504031137 | 61 | 197 | 3.0 | 3.0 | 0.00 | 0.00 | 0.00 | 59 | 1006.0 |
| 20260504030637 | 61 | 206 | 2.0 | 3.0 | 0.00 | 0.00 | 0.00 | 58 | 1006.1 |
| 20260504030137 | 62 | 210 | 1.0 | 4.0 | 0.00 | 0.00 | 0.00 | 58 | 1006.1 |
| 20260504025637 | 62 | 200 | 2.0 | 3.0 | 0.00 | 0.00 | 0.00 | 58 | 1006.1 |
| 20260504025137 | 62 | 186 | 6.0 | 3.0 | 0.00 | 0.00 | 0.00 | 58 | 1006.1 |
| 20260504024636 | 62 | 234 | 2.0 | 3.0 | 0.00 | 0.00 | 0.00 | 57 | 1006.0 |
| 20260504024137 | 62 | 181 | 2.0 | 3.0 | 0.00 | 0.00 | 0.00 | 57 | 1006.1 |
| 20260504023636 | 62 | 193 | 4.0 | 3.0 | 0.00 | 0.00 | 0.00 | 57 | 1006.0 |
| 20260504023137 | 63 | 235 | 4.0 | 3.0 | 0.00 | 0.00 | 0.00 | 56 | 1006.0 |
| 20260504022637 | 63 | 212 | 3.0 | 4.0 | 0.00 | 0.00 | 0.00 | 56 | 1006.0 |
| 20260504022137 | 63 | 217 | 5.0 | 3.0 | 0.00 | 0.00 | 0.00 | 56 | 1006.0 |
| 20260504021637 | 63 | 173 | 4.0 | 3.0 | 0.00 | 0.00 | 0.00 | 55 | 1006.0 |
| 20260504021137 | 63 | 207 | 4.0 | 4.0 | 0.00 | 0.00 | 0.00 | 55 | 1006.0 |
| 20260504020637 | 63 | 192 | 4.0 | 4.0 | 0.00 | 0.00 | 0.00 | 55 | 1005.9 |
| 20260504020137 | 64 | 194 | 2.0 | 4.0 | 0.00 | 0.00 | 0.00 | 54 | 1005.8 |
| 20260504015637 | 64 | 213 | 3.0 | 3.0 | 0.00 | 0.00 | 0.00 | 54 | 1005.7 |
| 20260504015137 | 64 | 186 | 2.0 | 4.0 | 0.00 | 0.00 | 0.00 | 53 | 1005.6 |
| 20260504014636 | 64 | 222 | 5.0 | 4.0 | 0.00 | 0.00 | 0.00 | 53 | 1005.5 |
| 20260504014137 | 64 | 202 | 3.0 | 5.0 | 0.00 | 0.00 | 0.00 | 53 | 1005.4 |
| 20260504013637 | 64 | 205 | 3.0 | 5.0 | 0.00 | 0.00 | 0.00 | 53 | 1005.4 |
| 20260504013137 | 65 | 182 | 2.0 | 4.0 | 0.00 | 0.00 | 0.00 | 52 | 1005.3 |
| 20260504012636 | 65 | 213 | 6.0 | 4.0 | 0.00 | 0.00 | 0.00 | 52 | 1005.2 |
| 20260504012137 | 65 | 189 | 3.0 | 3.0 | 0.00 | 0.00 | 0.00 | 51 | 1005.1 |
| 20260504011636 | 65 | 212 | 2.0 | 4.0 | 0.00 | 0.00 | 0.00 | 51 | 1005.1 |
| 20260504011137 | 65 | 219 | 2.0 | 4.0 | 0.00 | 0.00 | 0.00 | 50 | 1005.0 |
| 20260504010636 | 66 | 219 | 3.0 | 4.0 | 0.00 | 0.00 | 0.00 | 50 | 1005.1 |
| 20260504010137 | 66 | 210 | 4.0 | 4.0 | 0.00 | 0.00 | 0.00 | 50 | 1005.2 |
| 20260504005636 | 66 | 217 | 3.0 | 4.0 | 0.00 | 0.00 | 0.00 | 49 | 1005.2 |
| 20260504005137 | 66 | 219 | 5.0 | 4.0 | 0.00 | 0.00 | 0.00 | 49 | 1005.2 |
| 20260504004636 | 67 | 190 | 6.0 | 4.0 | 0.00 | 0.00 | 0.00 | 48 | 1005.2 |
| 20260504004137 | 67 | 217 | 4.0 | 5.0 | 0.00 | 0.00 | 0.00 | 48 | 1005.2 |
| 20260504003638 | 67 | 190 | 4.0 | 5.0 | 0.00 | 0.00 | 0.00 | 47 | 1005.2 |
| 20260504003137 | 68 | 199 | 7.0 | 5.0 | 0.00 | 0.00 | 0.00 | 47 | 1005.2 |
| 20260504002636 | 68 | 195 | 2.0 | 6.0 | 0.00 | 0.00 | 0.00 | 46 | 1005.1 |
| 20260504002137 | 68 | 206 | 4.0 | 6.0 | 0.00 | 0.00 | 0.00 | 46 | 1005.1 |
| 20260504001637 | 68 | 223 | 7.0 | 6.0 | 0.00 | 0.00 | 0.00 | 46 | 1005.1 |
| 20260504001137 | 69 | 217 | 5.0 | 6.0 | 0.00 | 0.00 | 0.00 | 45 | 1005.1 |
| 20260504000637 | 69 | 181 | 9.0 | 6.0 | 0.00 | 0.00 | 0.00 | 45 | 1005.2 |
| 20260504000137 | 69 | 186 | 7.0 | 6.0 | 0.00 | 0.00 | 0.00 | 45 | 1005.0 |
| 20260503235638 | 69 | 220 | 5.0 | 6.0 | 0.00 | 0.00 | 0.00 | 45 | 1005.0 |
| 20260503235137 | 69 | 240 | 4.0 | 6.0 | 0.00 | 0.00 | 0.00 | 45 | 1005.0 |
| 20260503234636 | 69 | 164 | 6.0 | 6.0 | 0.00 | 0.00 | 0.00 | 44 | 1005.1 |
| 20260503234137 | 68 | 221 | 6.0 | 6.0 | 0.00 | 0.00 | 0.00 | 45 | 1005.1 |
| 20260503233636 | 68 | 186 | 4.0 | 7.0 | 0.00 | 0.00 | 0.00 | 45 | 1005.1 |
| 20260503233137 | 68 | 215 | 7.0 | 6.0 | 0.00 | 0.00 | 0.00 | 45 | 1005.2 |
| 20260503232637 | 68 | 214 | 7.0 | 6.0 | 0.00 | 0.00 | 0.00 | 45 | 1005.3 |
| 20260503232137 | 68 | 212 | 5.0 | 7.0 | 0.00 | 0.00 | 0.00 | 45 | 1005.3 |
| 20260503231637 | 68 | 235 | 5.0 | 7.0 | 0.00 | 0.00 | 0.00 | 44 | 1005.4 |
| 20260503231137 | 68 | 214 | 5.0 | 7.0 | 0.00 | 0.00 | 0.00 | 44 | 1005.4 |
| 20260503230637 | 68 | 215 | 10.0 | 7.0 | 0.00 | 0.00 | 0.00 | 44 | 1005.4 |
| 20260503230137 | 68 | 230 | 13.0 | 7.0 | 0.00 | 0.00 | 0.00 | 44 | 1005.5 |
| 20260503225137 | 68 | 108 | 4.0 | 7.0 | 0.00 | 0.00 | 0.00 | 44 | 1005.8 |
| 20260503224636 | 68 | 233 | 5.0 | 9.0 | 0.00 | 0.00 | 0.00 | 44 | 1005.8 |
| 20260503224137 | 68 | 217 | 6.0 | 8.0 | 0.00 | 0.00 | 0.00 | 44 | 1005.9 |
| 20260503223636 | 68 | 186 | 8.0 | 8.0 | 0.00 | 0.00 | 0.00 | 43 | 1005.9 |
| 20260503223137 | 68 | 183 | 9.0 | 8.0 | 0.00 | 0.00 | 0.00 | 43 | 1006.0 |
| 20260503222637 | 68 | 227 | 7.0 | 9.0 | 0.00 | 0.00 | 0.00 | 43 | 1006.1 |
| 20260503222137 | 68 | 221 | 8.0 | 8.0 | 0.00 | 0.00 | 0.00 | 43 | 1006.0 |
| 20260503221637 | 68 | 192 | 7.0 | 8.0 | 0.00 | 0.00 | 0.00 | 43 | 1006.1 |
| 20260503221137 | 67 | 211 | 6.0 | 8.0 | 0.00 | 0.00 | 0.00 | 43 | 1006.1 |
| 20260503220636 | 67 | 218 | 14.0 | 9.0 | 0.00 | 0.00 | 0.00 | 43 | 1006.2 |
| 20260503220137 | 67 | 236 | 8.0 | 9.0 | 0.00 | 0.00 | 0.00 | 43 | 1006.2 |
| 20260503215636 | 68 | 155 | 7.0 | 8.0 | 0.00 | 0.00 | 0.00 | 42 | 1006.3 |
| 20260503215137 | 68 | 221 | 10.0 | 9.0 | 0.00 | 0.00 | 0.00 | 41 | 1006.4 |
| 20260503214636 | 68 | 228 | 11.0 | 9.0 | 0.00 | 0.00 | 0.00 | 42 | 1006.3 |
| 20260503214137 | 68 | 235 | 12.0 | 9.0 | 0.00 | 0.00 | 0.00 | 41 | 1006.4 |
| 20260503213636 | 68 | 200 | 19.0 | 9.0 | 0.00 | 0.00 | 0.00 | 41 | 1006.3 |
| 20260503213137 | 67 | 188 | 5.0 | 9.0 | 0.00 | 0.00 | 0.00 | 42 | 1006.5 |
| 20260503212636 | 67 | 198 | 8.0 | 9.0 | 0.00 | 0.00 | 0.00 | 41 | 1006.5 |
| 20260503212137 | 66 | 226 | 5.0 | 9.0 | 0.00 | 0.00 | 0.00 | 42 | 1006.6 |
| 20260503211638 | 65 | 179 | 16.0 | 9.0 | 0.00 | 0.00 | 0.00 | 42 | 1006.8 |
| 20260503211137 | 65 | 189 | 7.0 | 8.0 | 0.00 | 0.00 | 0.00 | 42 | 1006.7 |
| 20260503210636 | 65 | 207 | 13.0 | 9.0 | 0.00 | 0.00 | 0.00 | 42 | 1006.9 |
| 20260503210136 | 65 | 244 | 5.0 | 10.0 | 0.00 | 0.00 | 0.00 | 42 | 1006.9 |
| 20260503205636 | 65 | 227 | 11.0 | 11.0 | 0.00 | 0.00 | 0.00 | 41 | 1007.0 |
| 20260503205136 | 66 | 203 | 11.0 | 12.0 | 0.00 | 0.00 | 0.00 | 41 | 1007.1 |
| 20260503204636 | 66 | 188 | 16.0 | 10.0 | 0.00 | 0.00 | 0.00 | 40 | 1007.3 |
| 20260503204136 | 67 | 203 | 19.0 | 8.0 | 0.00 | 0.00 | 0.00 | 40 | 1007.4 |
| 20260503203636 | 68 | 212 | 9.0 | 8.0 | 0.00 | 0.00 | 0.00 | 41 | 1007.3 |
| 20260503203137 | 67 | 193 | 9.0 | 8.0 | 0.00 | 0.00 | 0.00 | 41 | 1007.4 |
| 20260503202636 | 67 | 202 | 9.0 | 10.0 | 0.00 | 0.00 | 0.00 | 41 | 1007.4 |
| 20260503202137 | 67 | 226 | 8.0 | 11.0 | 0.00 | 0.00 | 0.00 | 43 | 1007.5 |
| 20260503201637 | 66 | 191 | 22.0 | 11.0 | 0.00 | 0.00 | 0.00 | 43 | 1007.6 |
| 20260503201136 | 66 | 179 | 20.0 | 12.0 | 0.00 | 0.00 | 0.00 | 43 | 1007.9 |
| 20260503200636 | 66 | 219 | 11.0 | 13.0 | 0.00 | 0.00 | 0.00 | 43 | 1008.1 |
| 20260503200136 | 66 | 221 | 16.0 | 12.0 | 0.00 | 0.00 | 0.00 | 44 | 1007.9 |
| 20260503195636 | 65 | 216 | 10.0 | 10.0 | 0.00 | 0.00 | 0.00 | 44 | 1008.1 |
| 20260503195137 | 65 | 211 | 13.0 | 9.0 | 0.00 | 0.00 | 0.00 | 46 | 1008.1 |
| 20260503194636 | 65 | 257 | 9.0 | 9.0 | 0.00 | 0.00 | 0.00 | 48 | 1008.2 |
| 20260503194138 | 65 | 189 | 5.0 | 9.0 | 0.00 | 0.00 | 0.00 | 48 | 1008.3 |
| 20260503193636 | 65 | 212 | 11.0 | 8.0 | 0.00 | 0.00 | 0.00 | 47 | 1008.4 |
| 20260503193137 | 65 | 112 | 6.0 | 9.0 | 0.00 | 0.00 | 0.00 | 47 | 1008.3 |
| 20260503192636 | 64 | 210 | 4.0 | 9.0 | 0.00 | 0.00 | 0.00 | 49 | 1008.6 |
| 20260503192136 | 64 | 181 | 13.0 | 8.0 | 0.00 | 0.00 | 0.00 | 47 | 1008.7 |
| 20260503191636 | 64 | 198 | 9.0 | 8.0 | 0.00 | 0.00 | 0.00 | 48 | 1008.9 |
| 20260503191137 | 63 | 221 | 8.0 | 8.0 | 0.00 | 0.00 | 0.00 | 49 | 1009.0 |
| 20260503190636 | 62 | 231 | 9.0 | 7.0 | 0.00 | 0.00 | 0.00 | 50 | 1009.1 |
| 20260503190137 | 61 | 212 | 6.0 | 7.0 | 0.00 | 0.00 | 0.00 | 52 | 1009.1 |
| 20260503185636 | 60 | 203 | 4.0 | 7.0 | 0.00 | 0.00 | 0.00 | 55 | 1009.1 |
| 20260503185136 | 59 | 192 | 11.0 | 8.0 | 0.00 | 0.00 | 0.00 | 55 | 1009.3 |
| 20260503184637 | 58 | 210 | 6.0 | 7.0 | 0.00 | 0.00 | 0.00 | 55 | 1009.4 |
| 20260503184136 | 58 | 189 | 5.0 | 7.0 | 0.00 | 0.00 | 0.00 | 57 | 1009.5 |
| 20260503183637 | 58 | 224 | 4.0 | 7.0 | 0.00 | 0.00 | 0.00 | 58 | 1009.5 |
| 20260503183136 | 57 | 165 | 7.0 | 7.0 | 0.00 | 0.00 | 0.00 | 59 | 1009.7 |
| 20260503182636 | 56 | 215 | 3.0 | 8.0 | 0.00 | 0.00 | 0.00 | 60 | 1009.9 |
| 20260503182136 | 56 | 207 | 11.0 | 8.0 | 0.00 | 0.00 | 0.00 | 59 | 1009.8 |
| 20260503181636 | 56 | 188 | 4.0 | 8.0 | 0.00 | 0.00 | 0.00 | 59 | 1009.9 |